Weather History for EBLG - January, 2012

Change the Weather History Date:

Thursday, January 12, 2012

  Actual Average Record
Temperature  
Mean Temperature 42 °F -  
Max Temperature 47 °F 40 °F 51 °F (1998)
Min Temperature 37 °F 32 °F 17 °F (2003)
Degree Days  
Heating Degree Days 23    
Moisture  
Dew Point 41 °F    
Average Humidity 86    
Maximum Humidity 93    
Minimum Humidity 70    
Precipitation  
Precipitation 0.04 in - - ()
Sea Level Pressure  
Sea Level Pressure 30.31 in    
Wind  
Wind Speed 13 mph ()    
Max Wind Speed 22 mph    
Max Gust Speed -    
Visibility 6.7 miles    
Events Rain    
Averages and records for this station are not official NWS values.
T = Trace of Precipitation, MM = Missing Value Source: Averaged Metar Reports

Daily Weather History Graph

Daily Weather History Graph

Search for Another Location

Airport or City:

Trip Planner

Search our weather history database for the weather conditions in past years. The results will help you decide how hot, cold, wet, or windy it might be!

Date:

Astronomy

Jan. 12, 2012 Rise Set
Actual Time 8:36 AM CET 4:56 PM CET
Civil Twilight 7:58 AM CET 5:34 PM CET
Nautical Twilight 7:16 AM CET 6:16 PM CET
Astronomical Twilight 6:37 AM CET 6:55 PM CET
Moon 9:14 PM CET (1/12) 9:45 AM CET (1/12)
Length of Visible Light 9h 36m
Length of Day
8h 20m
Waning Gibbous, 89% of the Moon is Illuminated
Jan 12
Waning Gibbous
Jan 16
Last Quarter
Jan 23
New
Jan 31
First Quarter
Feb 7
Full

Hourly Weather History & Observations

Time (CET) Temp. Windchill Dew Point Humidity Pressure Visibility Wind Dir Wind Speed Gust Speed Precip Events Conditions
12:20 AM 44.6 °F 39.2 °F 41.0 °F 87% 30.48 in 6.2 mi SW 10.4 mph - N/A   Mostly Cloudy
12:50 AM 44.6 °F 39.2 °F 41.0 °F 87% 30.45 in 6.2 mi SW 10.4 mph - N/A   Mostly Cloudy
1:00 AM 45 °F - 41 °F 82% 30.49 in 19 mi SW 11.2 mph - -   Mostly Cloudy
1:20 AM 44.6 °F 38.8 °F 41.0 °F 87% 30.45 in 6.2 mi SW 11.5 mph - N/A   Mostly Cloudy
1:50 AM 44.6 °F 38.1 °F 41.0 °F 87% 30.45 in 6.2 mi SW 13.8 mph - N/A   Mostly Cloudy
2:20 AM 44.6 °F 38.4 °F 41.0 °F 87% 30.42 in 6.2 mi SW 12.7 mph - N/A   Mostly Cloudy
2:50 AM 44.6 °F 38.4 °F 41.0 °F 87% 30.42 in 6.2 mi SW 12.7 mph - N/A   Mostly Cloudy
3:20 AM 44.6 °F 38.4 °F 39.2 °F 81% 30.42 in 6.2 mi SW 12.7 mph - N/A   Mostly Cloudy
3:50 AM 42.8 °F 35.8 °F 39.2 °F 87% 30.39 in 6.2 mi SW 13.8 mph - N/A   Mostly Cloudy
4:00 AM 44 °F - 40 °F 79% 30.43 in 14 mi SW 13.4 mph - -   Overcast
4:20 AM 44.6 °F 37.4 °F 39.2 °F 81% 30.39 in 6.2 mi SW 16.1 mph - N/A   Mostly Cloudy
4:50 AM 44.6 °F 37.8 °F 41.0 °F 87% 30.39 in 6.2 mi SW 15.0 mph - N/A   Mostly Cloudy
5:20 AM 44.6 °F 38.8 °F 41.0 °F 87% 30.36 in 6.2 mi SW 11.5 mph - N/A   Mostly Cloudy
5:50 AM 44.6 °F 38.4 °F 41.0 °F 87% 30.36 in 6.2 mi SW 12.7 mph - N/A   Mostly Cloudy
6:20 AM 42.8 °F 34.8 °F 41.0 °F 93% 30.36 in 6.2 mi SW 17.3 mph - N/A   Mostly Cloudy
6:50 AM 42.8 °F 35.1 °F 41.0 °F 93% 30.33 in 6.2 mi SW 16.1 mph - N/A   Mostly Cloudy
7:00 AM 44 °F - 41 °F 83% 30.37 in 6 mi SW 15.7 mph - -   Overcast
7:20 AM 42.8 °F 35.1 °F 41.0 °F 93% 30.33 in 5.6 mi SW 16.1 mph - N/A   Mostly Cloudy
7:50 AM 42.8 °F 34.5 °F 41.0 °F 93% 30.30 in 6.2 mi SW 18.4 mph - N/A   Mostly Cloudy
8:20 AM 42.8 °F 34.8 °F 41.0 °F 93% 30.30 in 6.2 mi SW 17.3 mph - N/A   Mostly Cloudy
8:50 AM 44.6 °F 37.4 °F 41.0 °F 87% 30.30 in 6.2 mi SW 16.1 mph - N/A   Mostly Cloudy
9:20 AM 44.6 °F 36.9 °F 41.0 °F 87% 30.30 in 6.2 mi SW 18.4 mph - N/A   Partly Cloudy
9:50 AM 44.6 °F 36.9 °F 41.0 °F 87% 30.30 in 6.2 mi SW 18.4 mph - N/A   Partly Cloudy
10:00 AM 44 °F - 40 °F 82% 30.32 in 10 mi SW 17.9 mph - -   Scattered Clouds
10:20 AM 44.6 °F 36.4 °F 41.0 °F 87% 30.30 in 6.2 mi SW 20.7 mph - N/A   Partly Cloudy
10:50 AM 44.6 °F 36.6 °F 41.0 °F 87% 30.30 in 6.2 mi SW 19.6 mph - N/A   Partly Cloudy
11:20 AM 46.4 °F 39.0 °F 41.0 °F 81% 30.30 in 6.2 mi SW 19.6 mph - N/A   Partly Cloudy
11:50 AM 46.4 °F 39.0 °F 41.0 °F 81% 30.27 in 6.2 mi SW 19.6 mph - N/A   Partly Cloudy
12:20 PM 46.4 °F 38.7 °F 41.0 °F 81% 30.24 in 6.2 mi SW 20.7 mph - N/A   Partly Cloudy
12:50 PM 48.2 °F - 41.0 °F 76% 30.24 in 6.2 mi WSW 21.9 mph - N/A   Mostly Cloudy
1:00 PM 47 °F - 40 °F 70% 30.27 in 16 mi WSW 22.4 mph - -   Overcast
1:20 PM 46.4 °F 39.0 °F 39.2 °F 76% 30.24 in 6.2 mi WSW 19.6 mph - N/A   Mostly Cloudy
1:50 PM 46.4 °F 39.0 °F 41.0 °F 81% 30.21 in 6.2 mi West 19.6 mph - N/A   Mostly Cloudy
2:20 PM 46.4 °F 38.5 °F 41.0 °F 81% 30.21 in 6.2 mi WSW 21.9 mph - N/A   Mostly Cloudy
2:50 PM 46.4 °F 38.7 °F 42.8 °F 87% 30.21 in 3.1 mi WSW 20.7 mph - N/A   Light Drizzle
3:20 PM 46.4 °F 38.7 °F 42.8 °F 87% 30.18 in 6.2 mi WSW 20.7 mph - N/A   Mostly Cloudy
3:50 PM 46.4 °F 39.0 °F 42.8 °F 87% 30.18 in 6.2 mi West 19.6 mph - N/A   Mostly Cloudy
4:00 PM 46 °F - 43 °F 86% 30.22 in 7 mi West 20.1 mph - - Rain Light Drizzle
4:20 PM 46.4 °F 39.0 °F 42.8 °F 87% 30.21 in 6.2 mi WSW 19.6 mph - N/A   Mostly Cloudy
4:50 PM 46.4 °F 39.5 °F 42.8 °F 87% 30.21 in 6.2 mi West 17.3 mph - N/A   Mostly Cloudy
5:20 PM 46.4 °F 39.8 °F 44.6 °F 93% 30.21 in 3.7 mi West 16.1 mph - N/A Rain Light Rain Showers
5:50 PM 46.4 °F 40.4 °F 42.8 °F 87% 30.21 in 6.2 mi WNW 13.8 mph - N/A Rain Light Rain
6:20 PM 46.4 °F 41.5 °F 42.8 °F 87% 30.24 in 3.7 mi WNW 10.4 mph - N/A Rain Light Rain
6:50 PM 44.6 °F 39.2 °F 42.8 °F 93% 30.24 in 6.2 mi WNW 10.4 mph - N/A Rain Light Rain
7:00 PM 45 °F - 43 °F 89% 30.27 in 6 mi WNW 11.2 mph - - Rain Light Rain
7:20 PM 44.6 °F 40.2 °F 42.8 °F 93% 30.24 in 6.2 mi WNW 8.1 mph - N/A   Mostly Cloudy
7:50 PM 44.6 °F 39.7 °F 42.8 °F 93% 30.27 in 6.2 mi WNW 9.2 mph - N/A   Mostly Cloudy
8:20 PM 44.6 °F 39.7 °F 42.8 °F 93% 30.27 in 6.2 mi WNW 9.2 mph - N/A   Scattered Clouds
8:50 PM 42.8 °F 36.6 °F 37.4 °F 81% 30.30 in 6.2 mi NNW 11.5 mph - N/A   Scattered Clouds
9:20 PM 41.0 °F 36.4 °F 37.4 °F 87% 30.30 in 6.2 mi NW 6.9 mph - N/A   Partly Cloudy
9:50 PM 41.0 °F 35.8 °F 37.4 °F 87% 30.30 in 6.2 mi WNW 8.1 mph - N/A   Partly Cloudy
10:00 PM 40 °F - 37 °F 85% 30.34 in 9 mi WNW 6.7 mph - -   Partly Cloudy
10:20 PM 41.0 °F 36.4 °F 35.6 °F 81% 30.33 in 6.2 mi NW 6.9 mph - N/A   Scattered Clouds
10:50 PM 39.2 °F 35.0 °F 35.6 °F 87% 30.33 in 6.2 mi WNW 5.8 mph - N/A   Scattered Clouds
11:20 PM 37.4 °F 32.8 °F 33.8 °F 87% 30.33 in 6.2 mi West 5.8 mph - N/A   Partly Cloudy
11:50 PM 39.2 °F 34.2 °F 35.6 °F 87% 30.33 in 6.2 mi West 6.9 mph - N/A   Scattered Clouds